sat.trackr.live / text

‹ back to catalog

UTMN 2 (RS27S)

NORAD 57203 · 2023-091AP

PAYLOAD ACTIVE UNKNOWN

§ Identity

Operator
Country
CIS
Launch date
2023-06-27
Launch site
VOSTO
Launch vehicle
Mass (kg)
RCS (m²)

Purposes: comms

External: N2YO · Heavens-Above · Gunter

§ Orbital elements

Epoch: 2026-09-19T21:32:11.692320Z

Period
93.87 min
Inclination
97.4995°
Eccentricity
0.0008851
Mean motion
15.34095890 rev/d
Perigee alt
457.6 km
Apogee alt
469.7 km
Semi-major
6,841.7 km
B*
2.7865e-4
RAAN
331.5244°
Arg perigee
102.3517°
Mean anomaly
257.8717°
Rev number
17,905

§ Raw data

UTMN 2 (RS27S)1 57203U 23091AP  26262.89735755  .00009125  00000+0  27865-3 0  99962 57203  97.4995 331.5244 0008851 102.3517 257.8717 15.34095890179058

JSON: /api/v1/satellites/57203 · /tle

For live sub-satellite position, see the globe view (requires WebGL).

§ Visibility from observer

Set your observer location to see the next 7 days of passes ≥ 10°. The values pass through the URL so the page stays shareable.

No JS? Fill the form by hand. The geolocation button needs JavaScript.

§ Radio — SatNOGS DB

ModeDescriptionDownlinkUplink
GMSK USP Mode U - GMSK 2k4 (USP FEC) TLM 436.125 MHz
GMSK USP Mode U - GMSK 4k8 (USP FEC) TLM 436.125 MHz
GMSK USP Mode U - GMSK 9k6 (USP FEC) TLM 435.680 MHz
SSTV Mode U - Robot 36 SSTV 436.125 MHz

4 transmitters · refreshed weekly from db.satnogs.org